Weather History for KLBB - November, 2011

Change the Weather History Date:

Wednesday, November 30, 2011

  Actual Average Record
Temperature  
Mean Temperature 44 °F 44 °F  
Max Temperature 62 °F 58 °F 81 °F (2012)
Min Temperature 26 °F 30 °F 10 °F (1918)
Degree Days  
Heating Degree Days 21 21  
Month to date heating degree days 424 460  
Since 1 July heating degree days 577 642  
Cooling Degree Days 0 0  
Month to date cooling degree days 1 3  
Year to date cooling degree days 2595 1804  
Moisture  
Dew Point 25 °F    
Average Humidity 53    
Maximum Humidity 81    
Minimum Humidity 25    
Precipitation  
Precipitation 0.00 in 0.02 in 0.22 in (1985)
Month to date precipitation 0.26 0.85  
Year to date precipitation 4.34 18.36  
Snow  
Snow 0.00 in 0.10 in T in (2004)
Month to date snowfall 0.0 0.9  
Since 1 July snowfall T 0.9  
Since 1 September snowfall T 0.9  
Snow Depth 0.00 in    
Sea Level Pressure  
Sea Level Pressure 30.05 in    
Wind  
Wind Speed 13 mph (SW)    
Max Wind Speed 24 mph    
Max Gust Speed 31 mph    
Visibility 10 miles    
Events      
T = Trace of Precipitation, MM = Missing Value Source: NWS Daily Summary

Daily Weather History Graph

Daily Weather History Graph

Search for Another Location

Airport or City:

Trip Planner

Search our weather history database for the weather conditions in past years. The results will help you decide how hot, cold, wet, or windy it might be!

Date:

Astronomy

Nov. 30, 2011 Rise Set
Actual Time 7:32 AM CST 5:38 PM CST
Civil Twilight 7:05 AM CST 6:06 PM CST
Nautical Twilight 6:34 AM CST 6:36 PM CST
Astronomical Twilight 6:04 AM CST 7:06 PM CST
Moon 11:59 AM CST (11/30) 11:28 PM CST (11/30)
Length of Visible Light 11h 00m
Length of Day
10h 06m
Waxing Crescent, 34% of the Moon is Illuminated
Nov 30
Waxing Crescent
Dec 2
First Quarter
Dec 10
Full
Dec 17
Last Quarter
Dec 24
New

Hourly Weather History & Observations

Time (CST) Temp. Windchill Dew Point Humidity Pressure Visibility Wind Dir Wind Speed Gust Speed Precip Events Conditions
12:53 AM 30.9 °F 25.2 °F 25.0 °F 79% 30.26 in 10.0 mi West 5.8 mph - N/A   Clear
1:53 AM 30.9 °F 26.2 °F 25.0 °F 79% 30.25 in 10.0 mi WNW 4.6 mph - N/A   Clear
2:53 AM 30.0 °F - 24.1 °F 79% 30.24 in 10.0 mi Calm Calm - N/A   Clear
3:53 AM 28.0 °F 24.2 °F 21.9 °F 78% 30.23 in 10.0 mi WSW 3.5 mph - N/A   Clear
4:53 AM 27.0 °F 23.0 °F 21.9 °F 81% 30.21 in 10.0 mi West 3.5 mph - N/A   Clear
5:53 AM 27.0 °F 21.6 °F 21.0 °F 78% 30.22 in 10.0 mi WNW 4.6 mph - N/A   Clear
6:53 AM 27.0 °F 21.6 °F 21.0 °F 78% 30.21 in 10.0 mi SW 4.6 mph - N/A   Clear
7:53 AM 28.9 °F 22.8 °F 23.0 °F 78% 30.20 in 10.0 mi SW 5.8 mph - N/A   Clear
8:53 AM 34.0 °F 28.8 °F 27.0 °F 75% 30.19 in 10.0 mi WSW 5.8 mph - N/A   Clear
9:53 AM 44.1 °F 37.7 °F 30.0 °F 58% 30.16 in 10.0 mi SSW 12.7 mph - N/A   Clear
10:53 AM 48.9 °F - 28.0 °F 44% 30.12 in 10.0 mi SSW 15.0 mph - N/A   Clear
11:53 AM 53.1 °F - 28.0 °F 38% 30.08 in 10.0 mi SSW 17.3 mph 24.2 mph N/A   Clear
12:53 PM 57.0 °F - 26.1 °F 30% 30.02 in 10.0 mi SSW 20.7 mph 25.3 mph N/A   Clear
1:53 PM 60.1 °F - 26.1 °F 27% 29.96 in 10.0 mi SSW 19.6 mph 26.5 mph N/A   Clear
2:53 PM 61.0 °F - 25.0 °F 25% 29.91 in 10.0 mi SSW 21.9 mph - N/A   Clear
3:53 PM 61.0 °F - 24.1 °F 24% 29.90 in 10.0 mi SSW 19.6 mph - N/A   Clear
4:53 PM 60.1 °F - 24.1 °F 25% 29.89 in 10.0 mi South 18.4 mph 26.5 mph N/A   Clear
5:53 PM 55.9 °F - 24.1 °F 29% 29.89 in 10.0 mi South 13.8 mph - N/A   Clear
6:53 PM 53.1 °F - 25.0 °F 34% 29.90 in 10.0 mi South 16.1 mph - N/A   Clear
7:53 PM 51.1 °F - 25.0 °F 36% 29.90 in 10.0 mi South 13.8 mph - N/A   Clear
8:53 PM 50.0 °F - 25.0 °F 38% 29.88 in 10.0 mi South 16.1 mph - N/A   Clear
9:53 PM 50.0 °F - 25.0 °F 38% 29.86 in 10.0 mi South 21.9 mph 31.1 mph N/A   Clear
10:53 PM 48.0 °F - 25.0 °F 41% 29.86 in 10.0 mi South 18.4 mph 28.8 mph N/A   Clear
11:53 PM 46.0 °F 38.3 °F 26.1 °F 46% 29.85 in 10.0 mi South 20.7 mph - N/A   Clear